When you browse on this site, cookies collect data to enhance your experience and personalize the content and advertising you see.
Visit our Privacy Policy to learn more. By continuing to use the site, you agree to this use of cookies and data.
  • In Romania
  • List of Countries
  • For 7 days
  • Water Temperature
  • Weather Map
  • Weather Widgets
  • user-avatar
    Login

    Hourly Weather Ali Bayramli

    Today, 19 October, Saturday

    Time Temperature Precipitation Wind Pressure Humidity
    00:00 +17°C° 0 mm 0 mps 760 mmHg 88%
    01:00 +16°C° 0 mm 0 mps 760 mmHg 89%
    02:00 +16°C° 0 mm 0 mps 760 mmHg 89%
    03:00 +16°C° 0 mm 0 mps 760 mmHg 90%
    04:00 +15°C° 0 mm 0 mps 760 mmHg 90%
    05:00 +15°C° 0 mm 0 mps 761 mmHg 90%
    06:00 +16°C° 0 mm 1 mps 761 mmHg 90%
    07:00 +19°C° 0 mm 1 mps 761 mmHg 81%
    08:00 +21°C° 0 mm 1 mps 761 mmHg 72%
    09:00 +23°C° 0 mm 1 mps 762 mmHg 63%
    10:00 +24°C° 0 mm 1 mps 762 mmHg 57%
    11:00 +26°C° 0 mm 1 mps 761 mmHg 51%
    12:00 +27°C° 0 mm 2 mps 761 mmHg 45%
    13:00 +27°C° 0 mm 3 mps 761 mmHg 45%
    14:00 +27°C° 0 mm 4 mps 761 mmHg 45%
    15:00 +27°C° 0 mm 5 mps 760 mmHg 45%
    16:00 +25°C° 0 mm 5 mps 761 mmHg 52%
    17:00 +22°C° 0 mm 5 mps 761 mmHg 60%
    18:00 +21°C° 0 mm 4 mps 761 mmHg 67%
    19:00 +20°C° 0 mm 4 mps 762 mmHg 69%
    20:00 +19°C° 0 mm 4 mps 762 mmHg 71%
    21:00 +19°C° 0 mm 4 mps 762 mmHg 73%
    22:00 +19°C° 0 mm 4 mps 762 mmHg 75%
    23:00 +18°C° 0 mm 3 mps 763 mmHg 78%

    Tomorrow, 20 October, Sunday

    Time Temperature Precipitation Wind Pressure Humidity
    00:00 +18°C° 0 mm 3 mps 763 mmHg 81%
    01:00 +17°C° 0 mm 3 mps 763 mmHg 83%
    02:00 +17°C° 0 mm 2 mps 763 mmHg 86%
    03:00 +17°C° 0 mm 2 mps 763 mmHg 89%
    04:00 +16°C° 0 mm 1 mps 763 mmHg 90%
    05:00 +16°C° 0 mm 1 mps 763 mmHg 90%
    06:00 +16°C° 0 mm 1 mps 763 mmHg 91%
    07:00 +18°C° 0 mm 1 mps 764 mmHg 82%
    08:00 +20°C° 0 mm 1 mps 764 mmHg 74%
    09:00 +22°C° 0 mm 1 mps 764 mmHg 65%
    10:00 +23°C° 0 mm 1 mps 764 mmHg 59%
    11:00 +24°C° 0 mm 1 mps 764 mmHg 54%
    12:00 +26°C° 0 mm 1 mps 764 mmHg 48%
    13:00 +26°C° 0 mm 2 mps 764 mmHg 46%
    14:00 +26°C° 0 mm 3 mps 763 mmHg 44%
    15:00 +27°C° 0 mm 4 mps 763 mmHg 43%
    16:00 +25°C° 0 mm 5 mps 763 mmHg 47%
    17:00 +22°C° 0 mm 5 mps 764 mmHg 51%
    18:00 +20°C° 0 mm 6 mps 764 mmHg 55%
    19:00 +20°C° 0 mm 5 mps 764 mmHg 57%
    20:00 +19°C° 0 mm 5 mps 764 mmHg 59%
    21:00 +19°C° 0 mm 4 mps 764 mmHg 61%
    22:00 +18°C° 0 mm 4 mps 764 mmHg 63%
    23:00 +18°C° 0 mm 3 mps 764 mmHg 64%

    Day after tomorrow, 21 October, Monday

    Time Temperature Precipitation Wind Pressure Humidity
    00:00 +17°C° 0 mm 2 mps 764 mmHg 65%
    01:00 +17°C° 0 mm 2 mps 764 mmHg 67%
    02:00 +16°C° 0 mm 1 mps 764 mmHg 70%
    03:00 +15°C° 0 mm 1 mps 764 mmHg 72%
    04:00 +15°C° 0 mm 1 mps 764 mmHg 74%
    05:00 +15°C° 0 mm 1 mps 764 mmHg 77%
    06:00 +14°C° 0 mm 1 mps 765 mmHg 79%
    07:00 +16°C° 0 mm 1 mps 765 mmHg 70%
    08:00 +18°C° 0 mm 2 mps 765 mmHg 61%
    09:00 +20°C° 0 mm 2 mps 765 mmHg 52%
    10:00 +23°C° 0 mm 2 mps 765 mmHg 44%
    11:00 +24°C° 0 mm 2 mps 765 mmHg 36%
    12:00 +26°C° 0 mm 2 mps 765 mmHg 29%
    13:00 +26°C° 0 mm 3 mps 764 mmHg 28%
    14:00 +26°C° 0 mm 4 mps 764 mmHg 28%
    15:00 +26°C° 0 mm 5 mps 764 mmHg 28%
    16:00 +23°C° 0 mm 5 mps 764 mmHg 36%
    17:00 +21°C° 0 mm 5 mps 764 mmHg 44%
    18:00 +19°C° 0 mm 5 mps 765 mmHg 51%
    19:00 +19°C° 0 mm 4 mps 765 mmHg 54%
    20:00 +18°C° 0 mm 4 mps 765 mmHg 57%
    21:00 +17°C° 0 mm 3 mps 765 mmHg 60%
    22:00 +17°C° 0 mm 3 mps 765 mmHg 62%
    23:00 +16°C° 0 mm 3 mps 764 mmHg 64%

    22 October, Tuesday

    Time Temperature Precipitation Wind Pressure Humidity
    00:00 +16°C° 0 mm 2 mps 764 mmHg 67%
    01:00 +15°C° 0 mm 2 mps 764 mmHg 68%
    02:00 +15°C° 0 mm 2 mps 764 mmHg 69%
    03:00 +14°C° 0 mm 1 mps 764 mmHg 71%
    04:00 +14°C° 0 mm 1 mps 764 mmHg 72%
    05:00 +13°C° 0 mm 1 mps 764 mmHg 74%
    06:00 +13°C° 0 mm 1 mps 764 mmHg 75%
    07:00 +15°C° 0 mm 1 mps 765 mmHg 66%
    08:00 +18°C° 0 mm 1 mps 765 mmHg 56%
    09:00 +21°C° 0 mm 1 mps 765 mmHg 47%
    10:00 +22°C° 0 mm 1 mps 765 mmHg 42%
    11:00 +23°C° 0 mm 1 mps 765 mmHg 37%
    12:00 +24°C° 0 mm 2 mps 765 mmHg 32%
    13:00 +24°C° 0 mm 3 mps 764 mmHg 34%
    14:00 +23°C° 0 mm 4 mps 764 mmHg 36%
    15:00 +23°C° 0 mm 5 mps 764 mmHg 38%
    16:00 +22°C° 0 mm 5 mps 764 mmHg 45%
    17:00 +20°C° 0 mm 4 mps 764 mmHg 53%
    18:00 +19°C° 0 mm 4 mps 764 mmHg 60%
    19:00 +18°C° 0 mm 4 mps 765 mmHg 62%
    20:00 +18°C° 0 mm 4 mps 765 mmHg 63%
    21:00 +17°C° 0 mm 3 mps 765 mmHg 64%
    22:00 +17°C° 0 mm 3 mps 765 mmHg 65%
    23:00 +17°C° 0 mm 3 mps 765 mmHg 66%

    23 October, Wednesday

    Time Temperature Precipitation Wind Pressure Humidity
    00:00 +17°C° 0 mm 3 mps 764 mmHg 67%
    01:00 +16°C° 0 mm 2 mps 764 mmHg 68%
    02:00 +16°C° 0 mm 2 mps 764 mmHg 69%
    03:00 +16°C° 0 mm 2 mps 764 mmHg 71%
    04:00 +15°C° 0 mm 2 mps 764 mmHg 71%
    05:00 +15°C° 0 mm 1 mps 764 mmHg 72%
    06:00 +15°C° 0 mm 1 mps 765 mmHg 73%
    07:00 +16°C° 0 mm 1 mps 765 mmHg 66%
    08:00 +19°C° 0 mm 1 mps 765 mmHg 59%
    09:00 +20°C° 0 mm 1 mps 765 mmHg 52%
    10:00 +21°C° 0 mm 1 mps 765 mmHg 49%
    11:00 +22°C° 0 mm 1 mps 765 mmHg 46%
    12:00 +23°C° 0 mm 1 mps 764 mmHg 42%
    13:00 +24°C° 0 mm 1 mps 764 mmHg 42%
    14:00 +24°C° 0 mm 1 mps 764 mmHg 42%
    15:00 +24°C° 0 mm 1 mps 763 mmHg 42%
    16:00 +23°C° 0 mm 2 mps 763 mmHg 48%
    17:00 +20°C° 0 mm 2 mps 763 mmHg 55%
    18:00 +19°C° 0 mm 3 mps 764 mmHg 62%
    19:00 +18°C° 0 mm 2 mps 764 mmHg 67%
    20:00 +18°C° 0 mm 2 mps 764 mmHg 71%
    21:00 +18°C° 0 mm 1 mps 764 mmHg 76%
    22:00 +18°C° 0 mm 1 mps 764 mmHg 78%
    23:00 +16°C° 0 mm 1 mps 763 mmHg 81%

    24 October, Thursday

    Time Temperature Precipitation Wind Pressure Humidity
    00:00 +15°C° 0 mm 0 mps 763 mmHg 84%
    01:00 +14°C° 0 mm 0 mps 763 mmHg 85%
    02:00 +14°C° 0 mm 0 mps 763 mmHg 85%
    03:00 +14°C° 0 mm 0 mps 763 mmHg 86%
    04:00 +14°C° 0 mm 0 mps 763 mmHg 87%
    05:00 +13°C° 0 mm 0 mps 763 mmHg 87%
    06:00 +13°C° 0 mm 0 mps 763 mmHg 88%
    07:00 +15°C° 0 mm 0 mps 764 mmHg 78%
    08:00 +17°C° 0 mm 0 mps 764 mmHg 69%
    09:00 +19°C° 0 mm 0 mps 764 mmHg 59%
    10:00 +21°C° 0 mm 0 mps 764 mmHg 55%
    11:00 +22°C° 0 mm 0 mps 763 mmHg 51%
    12:00 +23°C° 0 mm 0 mps 763 mmHg 46%
    13:00 +25°C° 0 mm 1 mps 763 mmHg 47%
    14:00 +25°C° 0 mm 2 mps 763 mmHg 47%
    15:00 +25°C° 0 mm 3 mps 763 mmHg 47%
    16:00 +24°C° 0 mm 3 mps 763 mmHg 56%
    17:00 +22°C° 0 mm 3 mps 763 mmHg 65%
    18:00 +20°C° 0 mm 4 mps 763 mmHg 75%
    19:00 +20°C° 0 mm 3 mps 763 mmHg 78%
    20:00 +19°C° 0 mm 3 mps 763 mmHg 82%
    21:00 +19°C° 0 mm 2 mps 763 mmHg 86%
    22:00 +19°C° 0 mm 2 mps 763 mmHg 86%
    23:00 +19°C° 0 mm 1 mps 763 mmHg 87%
    Show more